• In Belarus
  • List of Countries
  • For 7 days
  • Water Temperature
  • Satellite Maps
  • Weather Map
  • Weather Widgets
  • user-avatar
    Login

    Hourly Weather Wioska

    Today, 25 September, Tuesday

    Time Temperature Precipitation Wind Pressure Humidity
    00:00 +5°C° 0 mm 5 mps 755 mmHg 77%
    01:00 +4°C° 0 mm 4 mps 756 mmHg 81%
    02:00 +3°C° 0 mm 5 mps 756 mmHg 82%
    03:00 +3°C° 0 mm 5 mps 756 mmHg 82%
    04:00 +3°C° 0 mm 5 mps 757 mmHg 83%
    05:00 +3°C° 0 mm 6 mps 757 mmHg 83%
    06:00 +3°C° 0 mm 6 mps 758 mmHg 82%
    07:00 +3°C° 0 mm 6 mps 758 mmHg 81%
    08:00 +5°C° 0 mm 6 mps 759 mmHg 76%
    09:00 +7°C° 0 mm 6 mps 759 mmHg 70%
    10:00 +9°C° 0 mm 6 mps 760 mmHg 64%
    11:00 +10°C° 0.1 mm 6 mps 760 mmHg 59%
    12:00 +11°C° 0.1 mm 6 mps 760 mmHg 54%
    13:00 +12°C° 0.1 mm 5 mps 760 mmHg 49%
    14:00 +12°C° 0 mm 5 mps 760 mmHg 49%
    15:00 +12°C° 0 mm 5 mps 760 mmHg 50%
    16:00 +12°C° 0 mm 5 mps 761 mmHg 51%
    17:00 +11°C° 0 mm 4 mps 761 mmHg 57%
    18:00 +9°C° 0 mm 3 mps 761 mmHg 64%
    19:00 +8°C° 0 mm 2 mps 762 mmHg 70%
    20:00 +8°C° 0 mm 2 mps 762 mmHg 71%
    21:00 +7°C° 0 mm 2 mps 762 mmHg 73%
    22:00 +7°C° 0 mm 2 mps 763 mmHg 75%
    23:00 +7°C° 0 mm 2 mps 763 mmHg 75%

    Tomorrow, 26 September, Wednesday

    Time Temperature Precipitation Wind Pressure Humidity
    00:00 +6°C° 0 mm 2 mps 763 mmHg 76%
    01:00 +6°C° 0 mm 2 mps 763 mmHg 77%
    02:00 +6°C° 0 mm 2 mps 763 mmHg 77%
    03:00 +5°C° 0 mm 2 mps 763 mmHg 77%
    04:00 +5°C° 0 mm 2 mps 763 mmHg 78%
    05:00 +5°C° 0 mm 2 mps 763 mmHg 76%
    06:00 +6°C° 0 mm 2 mps 763 mmHg 75%
    07:00 +6°C° 0 mm 2 mps 763 mmHg 74%
    08:00 +8°C° 0 mm 3 mps 763 mmHg 67%
    09:00 +10°C° 0 mm 3 mps 762 mmHg 60%
    10:00 +11°C° 0 mm 4 mps 762 mmHg 53%
    11:00 +12°C° 0 mm 4 mps 762 mmHg 49%
    12:00 +13°C° 0 mm 4 mps 761 mmHg 45%
    13:00 +14°C° 0 mm 5 mps 760 mmHg 42%
    14:00 +14°C° 0 mm 4 mps 760 mmHg 43%
    15:00 +14°C° 0 mm 4 mps 759 mmHg 45%
    16:00 +14°C° 0 mm 4 mps 758 mmHg 47%
    17:00 +13°C° 0 mm 4 mps 758 mmHg 48%
    18:00 +13°C° 0 mm 4 mps 758 mmHg 49%
    19:00 +12°C° 0 mm 4 mps 758 mmHg 50%
    20:00 +12°C° 0 mm 4 mps 758 mmHg 49%
    21:00 +12°C° 0 mm 5 mps 758 mmHg 49%
    22:00 +12°C° 0 mm 5 mps 758 mmHg 49%
    23:00 +12°C° 0 mm 5 mps 757 mmHg 49%

    Day after tomorrow, 27 September, Thursday

    Time Temperature Precipitation Wind Pressure Humidity
    00:00 +12°C° 0 mm 5 mps 757 mmHg 49%
    01:00 +12°C° 0 mm 5 mps 757 mmHg 49%
    02:00 +12°C° 0 mm 5 mps 757 mmHg 50%
    03:00 +10°C° 0 mm 5 mps 757 mmHg 51%
    04:00 +10°C° 0 mm 5 mps 756 mmHg 52%
    05:00 +10°C° 0 mm 5 mps 756 mmHg 54%
    06:00 +10°C° 0 mm 5 mps 756 mmHg 56%
    07:00 +10°C° 0 mm 5 mps 757 mmHg 58%
    08:00 +13°C° 0 mm 5 mps 757 mmHg 57%
    09:00 +14°C° 0 mm 5 mps 756 mmHg 57%
    10:00 +16°C° 0 mm 5 mps 756 mmHg 56%
    11:00 +17°C° 0 mm 5 mps 756 mmHg 56%
    12:00 +19°C° 0 mm 5 mps 756 mmHg 56%
    13:00 +21°C° 0 mm 5 mps 756 mmHg 56%
    14:00 +21°C° 0 mm 5 mps 755 mmHg 57%
    15:00 +21°C° 0 mm 4 mps 755 mmHg 59%
    16:00 +21°C° 0 mm 4 mps 755 mmHg 60%
    17:00 +19°C° 0 mm 3 mps 755 mmHg 65%
    18:00 +18°C° 0 mm 3 mps 754 mmHg 70%
    19:00 +16°C° 0 mm 2 mps 754 mmHg 74%
    20:00 +16°C° 0 mm 2 mps 754 mmHg 75%
    21:00 +14°C° 0 mm 3 mps 754 mmHg 75%
    22:00 +14°C° 0 mm 3 mps 753 mmHg 75%
    23:00 +14°C° 0 mm 3 mps 753 mmHg 73%

    28 September, Friday

    Time Temperature Precipitation Wind Pressure Humidity
    00:00 +13°C° 0 mm 3 mps 752 mmHg 71%
    01:00 +13°C° 0 mm 3 mps 752 mmHg 69%
    02:00 +13°C° 0 mm 3 mps 751 mmHg 67%
    03:00 +13°C° 0 mm 3 mps 751 mmHg 66%
    04:00 +12°C° 0 mm 3 mps 750 mmHg 64%
    05:00 +12°C° 0 mm 3 mps 750 mmHg 64%
    06:00 +12°C° 0 mm 3 mps 750 mmHg 64%
    07:00 +12°C° 0 mm 3 mps 749 mmHg 64%
    08:00 +14°C° 0 mm 4 mps 749 mmHg 59%
    09:00 +17°C° 0 mm 4 mps 750 mmHg 54%
    10:00 +17°C° 0 mm 5 mps 750 mmHg 49%
    11:00 +19°C° 0 mm 5 mps 749 mmHg 49%
    12:00 +20°C° 0 mm 5 mps 749 mmHg 48%
    13:00 +20°C° 0 mm 5 mps 749 mmHg 47%
    14:00 +20°C° 0 mm 5 mps 749 mmHg 51%
    15:00 +19°C° 0 mm 5 mps 749 mmHg 54%
    16:00 +17°C° 0 mm 5 mps 749 mmHg 58%
    17:00 +17°C° 0 mm 4 mps 749 mmHg 63%
    18:00 +15°C° 0 mm 4 mps 750 mmHg 67%
    19:00 +13°C° 0 mm 4 mps 750 mmHg 72%
    20:00 +13°C° 0 mm 3 mps 750 mmHg 71%
    21:00 +12°C° 0 mm 3 mps 751 mmHg 70%
    22:00 +12°C° 0 mm 3 mps 751 mmHg 69%
    23:00 +12°C° 0 mm 2 mps 751 mmHg 68%

    29 September, Saturday

    Time Temperature Precipitation Wind Pressure Humidity
    00:00 +12°C° 0 mm 2 mps 751 mmHg 68%
    01:00 +12°C° 0 mm 2 mps 751 mmHg 67%
    02:00 +10°C° 0 mm 3 mps 751 mmHg 69%
    03:00 +9°C° 0 mm 3 mps 751 mmHg 72%
    04:00 +8°C° 0 mm 3 mps 751 mmHg 74%
    05:00 +8°C° 0 mm 3 mps 752 mmHg 75%
    06:00 +8°C° 0 mm 3 mps 752 mmHg 77%
    07:00 +8°C° 0 mm 3 mps 753 mmHg 78%
    08:00 +9°C° 0 mm 3 mps 753 mmHg 74%
    09:00 +10°C° 0 mm 3 mps 753 mmHg 70%
    10:00 +12°C° 0 mm 3 mps 754 mmHg 66%
    11:00 +13°C° 0 mm 3 mps 754 mmHg 62%
    12:00 +13°C° 0 mm 3 mps 754 mmHg 58%
    13:00 +14°C° 0 mm 3 mps 753 mmHg 54%
    14:00 +14°C° 0 mm 3 mps 753 mmHg 54%
    15:00 +14°C° 0 mm 3 mps 754 mmHg 54%
    16:00 +14°C° 0 mm 3 mps 754 mmHg 54%
    17:00 +13°C° 0 mm 3 mps 754 mmHg 58%
    18:00 +12°C° 0 mm 2 mps 754 mmHg 63%
    19:00 +10°C° 0 mm 2 mps 755 mmHg 68%
    20:00 +10°C° 0 mm 2 mps 755 mmHg 69%
    21:00 +9°C° 0 mm 2 mps 755 mmHg 71%
    22:00 +9°C° 0 mm 2 mps 755 mmHg 73%
    23:00 +9°C° 0 mm 1 mps 755 mmHg 75%

    30 September, Sunday

    Time Temperature Precipitation Wind Pressure Humidity
    00:00 +9°C° 0 mm 1 mps 755 mmHg 76%
    01:00 +9°C° 0 mm 1 mps 755 mmHg 78%
    02:00 +8°C° 0 mm 1 mps 755 mmHg 80%
    03:00 +8°C° 0 mm 1 mps 755 mmHg 81%
    04:00 +8°C° 0 mm 1 mps 754 mmHg 83%
    05:00 +8°C° 0 mm 1 mps 755 mmHg 81%
    06:00 +8°C° 0 mm 1 mps 755 mmHg 80%
    07:00 +9°C° 0 mm 1 mps 755 mmHg 78%
    08:00 +11°C° 0 mm 1 mps 754 mmHg 70%
    09:00 +12°C° 0 mm 1 mps 754 mmHg 63%
    10:00 +14°C° 0 mm 1 mps 754 mmHg 55%
    11:00 +15°C° 0 mm 1 mps 754 mmHg 51%
    12:00 +15°C° 0 mm 1 mps 753 mmHg 47%
    13:00 +16°C° 0 mm 1 mps 753 mmHg 43%
    14:00 +16°C° 0 mm 1 mps 752 mmHg 43%
    15:00 +16°C° 0 mm 1 mps 752 mmHg 42%
    16:00 +16°C° 0 mm 1 mps 751 mmHg 42%
    17:00 +14°C° 0 mm 1 mps 751 mmHg 46%
    18:00 +13°C° 0 mm 1 mps 751 mmHg 49%
    19:00 +12°C° 0 mm 1 mps 751 mmHg 53%
    20:00 +11°C° 0 mm 1 mps 751 mmHg 54%
    21:00 +11°C° 0 mm 1 mps 751 mmHg 55%
    22:00 +10°C° 0 mm 0 mps 751 mmHg 56%
    23:00 +11°C° 0 mm 1 mps 751 mmHg 57%
    Show more